Regional Weather Roundup
Issued by NWS Cleveland, OH

Home | Current Version | Previous Version | Graphics & Text | Print | Product List | Glossary On
Versions: 1 2 3 4 5 6 7 8 9 10 11 12 13 14 15 16 17 18 19 20 21 22 23 24 25 26 27 28 29 30 31 32 33 34 35 36 37 38 39 40 41 42 43 44 45 46 47 48 49 50
000
ASUS41 KCLE 231610
RWRCLE
OHIO REGIONAL WEATHER ROUNDUP
NATIONAL WEATHER SERVICE CLEVELAND, OH
1200 PM EDT WED MAY 23 2018

NOTE: "FAIR" INDICATES FEW OR NO CLOUDS BELOW 12,000 FEET WITH NO
SIGNIFICANT WEATHER AND/OR OBSTRUCTIONS TO VISIBILITY.

OHZ001>008-015>018-024>027-034-035-043-044-231700-
   NORTHWEST OHIO

CITY           SKY/WX    TMP DP  RH WIND       PRES   REMARKS
DEFIANCE       FAIR      71  56  58 CALM      30.20S
FINDLAY        FAIR      72  55  55 NE7       30.19R
TOLEDO EXPRESS FAIR      73  55  53 E5        30.18S
TOLEDO EXEC    FAIR      74  51  44 E7        30.19S
LIMA           FAIR      70  56  61 NE9       30.20R
$$

OHZ009>014-019>023-028>033-038-089-231700-
   NORTHEAST OHIO

CITY           SKY/WX    TMP DP  RH WIND       PRES   REMARKS
CLE-HOPKINS    FAIR      65  55  70 VRB3      30.21S
CLE-LAKEFRONT  FAIR      57  51  80 CALM      30.19S
CUY CO. ARPT   MOSUNNY   61  55  82 NW8       30.21R
LORAIN-ELYRIA  FAIR      66  50  56 N9G18     30.20R
ASHTABULA      CLOUDY    58  56  93 W7        30.19S
AKRON-CANTON   PTSUNNY   65  55  70 N9        30.20R
WOOSTER        FAIR      65  57  75 N8        30.20R
MANSFIELD      FAIR      67  55  65 N9        30.20R
YOUNGSTOWN     CLOUDY    61  55  81 N7        30.18R
$$

OHZ042-051>053-060>062-070>072-077>081-231700-
  SOUTHWEST OHIO

CITY           SKY/WX    TMP DP  RH WIND       PRES   REMARKS
CINC-COVINGTON FAIR      73  60  63 CALM      30.16R
CINC-LUNKEN    FAIR      75  63  66 VRB5      30.15S
HAMILTON       FAIR      73  60  63 E9        30.17R
DAYTON         FAIR      70  58  65 N12G18    30.19R
WRIGHT-PAT AFB FAIR      71  56  58 N7        30.17S
DAYTON GENERAL FAIR      73  54  51 NE10      30.17R
WILMINGTON     FAIR      70  60  70 NE13G18   30.17R
$$

OHZ036-037-039>041-045>050-054>059-063>069-073>076-082>088-231700-
  CENTRAL AND SOUTHEAST OHIO

CITY           SKY/WX    TMP DP  RH WIND       PRES   REMARKS
COLUMBUS       FAIR      70  56  61 N10G17    30.17R
OSU AIRPORT    FAIR      69  56  62 N13       30.18R
BOLTON FIELD   SUNNY     70  57  64 NE13      30.18R
RICKENBACK AFB FAIR      70  58  65 MISG      30.16S
NEWARK         FAIR      68  56  65 NE9       30.18R
MARION         FAIR      70  57  63 NE13G21   30.20R
LANCASTER      FAIR      69  59  70 NE10G18   30.18R
ZANESVILLE     CLOUDY    63  54  72 N9        30.19R
NEW PHILLY     NOT AVBL
$$



USA.gov is the U.S. government's official web portal to all federal, state and local government web resources and services.